User: anonymous   Login
Location: Saint-Usage
(47.1052°N, 5.2587°E)
Time: 23:12:32
(UTC+01:00)
Language:

DX 1 - Orbit

View from above orbital plane
View from above orbital plane
View from above satellite
View from above satellite

Ground track
Ground track

The orbit data is extracted from the following two-line orbital elements,

1 40071U 14037C   21339.52471664  .00000317  00000-0  47795-4 0  9997
2 40071  98.4321 193.3279 0007597 213.0878 146.9854 14.81590349400625
Epoch (UTC): 05 December 2021 12:35:35
Eccentricity: 0.0007597
inclination: 98.4321°
perigee height: 619 km
apogee height: 629 km
right ascension of ascending node: 193.3279°
argument of perigee: 213.0878°
revolutions per day: 14.81590349
mean anomaly at epoch: 146.9854°
orbit number at epoch: 40062

The dashed part of the orbit path shows where the satellite is in the earth's shadow,  

DLR